map of SON home
Great Circle Mapper logo
SON - Airport
Location
City:  Espíritu Santo, Espíritu Santo Island, Sanma, Vanuatu
Near (Alt.):Luganville
Name:Santo-Pekoa International Airport
ICAO / IATA:NVSS / SON

Details
Type:Airport (Aerodrome, Airfield)
Use:International (customs port of entry)
Latitude:15°30'21"S (-15.505766)
Longitude:167°13'17"E (167.221358)
Elevation:184 ft (56 m)
Runways:1
Longest:6523 × 98 ft (1988 × 30 m), paved

Time
Time Zone:UTC+11 (DST+12)

Weather
TAF:NVSS 242230Z 2500/2506 VRB03KT 9999 -SHRA SCT018 BKN030 OVC110
TEMPO 2500/2506 3000 -TSRA SCT010 BKN015 FEW020CB OVC095

Related Locations
Nearby:
Farthest:MAX: 12413 mi / 19977 km
Matam (Ouro Sogui), SN

Find:

   beyond  
but within

Other Information
Maps:
NOTAMs:
Links:
Sources:

  
flag of Vanuatu   

Sectional Chart

Flight Planning
at skyvector.com

Satellite Image

Google Maps Satellite View

 

Copyright © 2004-2014 Karl L. Swartz. All rights reserved.
The Great Circle Mapper name and logo are trademarks of the Great Circle Mapper.
All other trademarks mentioned herein belong to their respective owners.
Please see credits for attibutions and further copyright information.

  Follow gcmap on Facebook Follow gcmap on Twitter

hCard Microformat

Geo Microformat